STARLINK-34219, 64270

Orbit data source: Space-Track

STARLINK-34219, 64270 is a payload satellite owned by SpaceX/Seattle (US) in LEO that was launched on Wed, 04 Jun 2025 UTC via an FALCON 9 launch vehicle from the Air Force Western Test Range (AFWTR). Payload-class satellites include a variety of spacecraft equipped with specific instruments for various scientific and technological missions. These include communications satellites like Starlink; space stations such as the ISS; scientific satellites like the Hubble; Earth observation satellites from companies like Planet Labs, Umbra, and HawkEye 360; GPS; miniature CubeSats for education and research; and military/defense satellites.

Loading next visibility...
Identifier
64270, 2025-120Q
Orbit
LEO
Country
Flag of USUS
Related business
Manufacturer
SpaceX/Seattle
Mission
Operational Commercial Communications
Bus & Motor
STARLINK V2MO, Unknown motor
Mass
575 kg wet, ~530 kg dry
Launch date (UTC)
2025-06-04 (1 year ago)
Launch vehicle
FALCON 9
Launch site
Air Force Western Test Range (AFWTR)
Object type
Payload
Rocket body
Debris
Shape & HBR
Box + 2 Pan, 17.7 m
Radar Cross Section
36.964 m², Large (>1 m²)

Expand to show TLE details & history
Last TLE update: 22 hours ago

TLE from 22 hours ago
0 STARLINK-34219
1 64270U 25120Q   26170.91698267  .00011543  00000-0  40113-3 0  9999
2 64270  53.1624   2.1352 0001533  82.5565 277.5610 15.30210392 59567
Epoch: 2026-06-19T22:00Z
TLE epoch observation values (Epoch: 2026-06-19T22:00:27.302Z)
Latitude
-0.00003°
Longitude
123.88234°
Altitude
475.946 km
Speed
7.629 km/s
True Right ascension
00h 08m 32s
True Declination
0° 00' 00"
Sunlit
Object was in daylight at epoch
Visualization orbit readout
Latitude
Unknown
Longitude
Unknown
Altitude
Unknown
Speed
Unknown
Apparent Right ascension
Unknown
Apparent Declination
Unknown
Sunlit
N/A
Visualization observer readout
Local Sidereal Time
07:16:31
Azimuth
Unknown
Elevation
Unknown
Doppler factor
Unknown
Orbital elements
Apogee altitude
476.491 km
Perigee altitude
474.389 km
Semi-major axis
6,853.577 km
Eccentricity
0.00015
Inclination
53.1624°
RAAN
2.1352°
Arg. of periapsis
82.5565°
True anomaly
277.54359°
Mean anomaly
277.561°
Eccentric anomaly
277.55229°
Mean motion
3.82532 °/min
Orbital period
94.11 mins
BSTAR
0.00040113
Loading maneuver chart data...
Computing Atmospheric mass density...
Loading historical data...
Loading historical data...
Loading historical data...
Loading historical data...
Loading historical data...
Loading historical data...
Loading historical data...

Documentation

Showing up to 5 results
|